When you browse on this site, cookies collect data to enhance your experience and personalize the content and advertising you see.
Visit our Privacy Policy to learn more. By continuing to use the site, you agree to this use of cookies and data.
  • Em Portugal
  • Lista de países
  • Para 7 dias
  • Temperatura da água
  • Mapas de satélite
  • Mapa do tempo
  • Widgets de tempo
  • user-avatar
    Iniciar Sessão

    Previsão horária em Borowo

    Hoje, 20 Junho, Quinta-feira

    Tempo Temperatura Precipitação Vento Pressão Humidade
    00:00 +20°C° 0.2 mm 2 m/s 750 mmHg 80%
    01:00 +21°C° 0 mm 1 m/s 750 mmHg 83%
    02:00 +21°C° 0.1 mm 1 m/s 749 mmHg 84%
    03:00 +20°C° 0.1 mm 2 m/s 749 mmHg 85%
    04:00 +20°C° 0.1 mm 2 m/s 749 mmHg 86%
    05:00 +21°C° 0.1 mm 2 m/s 749 mmHg 82%
    06:00 +23°C° 0.1 mm 2 m/s 750 mmHg 79%
    07:00 +24°C° 0.1 mm 3 m/s 750 mmHg 75%
    08:00 +26°C° 0 mm 3 m/s 750 mmHg 70%
    09:00 +27°C° 0 mm 3 m/s 750 mmHg 65%
    10:00 +29°C° 0 mm 3 m/s 750 mmHg 59%
    11:00 +30°C° 0 mm 3 m/s 750 mmHg 55%
    12:00 +31°C° 0 mm 3 m/s 750 mmHg 51%
    13:00 +33°C° 0 mm 3 m/s 750 mmHg 47%
    14:00 +33°C° 0 mm 3 m/s 750 mmHg 47%
    15:00 +33°C° 0 mm 3 m/s 749 mmHg 47%
    16:00 +32°C° 0 mm 2 m/s 749 mmHg 47%
    17:00 +29°C° 1.2 mm 3 m/s 749 mmHg 58%
    18:00 +25°C° 1.2 mm 3 m/s 750 mmHg 69%
    19:00 +21°C° 1.2 mm 3 m/s 750 mmHg 81%
    20:00 +20°C° 0.8 mm 2 m/s 751 mmHg 82%
    21:00 +21°C° 0.8 mm 1 m/s 751 mmHg 84%
    22:00 +20°C° 0.8 mm 1 m/s 751 mmHg 85%
    23:00 +20°C° 0.3 mm 1 m/s 752 mmHg 86%

    Amanhã, 21 Junho, Sexta-feira

    Tempo Temperatura Precipitação Vento Pressão Humidade
    00:00 +20°C° 0.3 mm 1 m/s 752 mmHg 87%
    01:00 +19°C° 0.3 mm 2 m/s 752 mmHg 88%
    02:00 +19°C° 0 mm 2 m/s 752 mmHg 89%
    03:00 +19°C° 0 mm 2 m/s 752 mmHg 90%
    04:00 +19°C° 0 mm 2 m/s 752 mmHg 91%
    05:00 +20°C° 0.1 mm 2 m/s 753 mmHg 88%
    06:00 +21°C° 0.1 mm 2 m/s 753 mmHg 86%
    07:00 +23°C° 0.1 mm 2 m/s 754 mmHg 83%
    08:00 +24°C° 0.2 mm 2 m/s 754 mmHg 78%
    09:00 +24°C° 0.2 mm 2 m/s 754 mmHg 73%
    10:00 +25°C° 0.2 mm 2 m/s 754 mmHg 68%
    11:00 +26°C° 0.6 mm 2 m/s 754 mmHg 66%
    12:00 +26°C° 0.6 mm 2 m/s 754 mmHg 65%
    13:00 +26°C° 0.6 mm 2 m/s 754 mmHg 64%
    14:00 +26°C° 0.2 mm 3 m/s 754 mmHg 63%
    15:00 +26°C° 0.2 mm 3 m/s 754 mmHg 63%
    16:00 +26°C° 0.2 mm 4 m/s 754 mmHg 63%
    17:00 +25°C° 0.2 mm 3 m/s 754 mmHg 69%
    18:00 +24°C° 0.2 mm 3 m/s 754 mmHg 75%
    19:00 +22°C° 0.2 mm 3 m/s 754 mmHg 80%
    20:00 +21°C° 0 mm 3 m/s 755 mmHg 84%
    21:00 +20°C° 0 mm 3 m/s 756 mmHg 87%
    22:00 +18°C° 0 mm 3 m/s 756 mmHg 91%
    23:00 +18°C° 0 mm 4 m/s 756 mmHg 90%

    Depois de amanhã, 22 Junho, Sábado

    Tempo Temperatura Precipitação Vento Pressão Humidade
    00:00 +17°C° 0 mm 4 m/s 757 mmHg 90%
    01:00 +15°C° 0 mm 4 m/s 757 mmHg 89%
    02:00 +14°C° 0 mm 3 m/s 757 mmHg 89%
    03:00 +14°C° 0 mm 3 m/s 757 mmHg 89%
    04:00 +13°C° 0 mm 3 m/s 758 mmHg 89%
    05:00 +14°C° 0 mm 3 m/s 758 mmHg 84%
    06:00 +15°C° 0 mm 4 m/s 758 mmHg 79%
    07:00 +18°C° 0 mm 4 m/s 759 mmHg 74%
    08:00 +19°C° 0 mm 4 m/s 759 mmHg 70%
    09:00 +20°C° 0 mm 4 m/s 759 mmHg 65%
    10:00 +22°C° 0 mm 4 m/s 759 mmHg 60%
    11:00 +22°C° 0 mm 4 m/s 759 mmHg 58%
    12:00 +23°C° 0 mm 4 m/s 759 mmHg 56%
    13:00 +25°C° 0 mm 4 m/s 758 mmHg 54%
    14:00 +25°C° 0 mm 4 m/s 758 mmHg 55%
    15:00 +25°C° 0 mm 4 m/s 758 mmHg 56%
    16:00 +23°C° 0 mm 5 m/s 758 mmHg 57%
    17:00 +22°C° 0 mm 4 m/s 758 mmHg 62%
    18:00 +21°C° 0 mm 4 m/s 758 mmHg 67%
    19:00 +20°C° 0 mm 3 m/s 758 mmHg 72%
    20:00 +19°C° 0 mm 4 m/s 758 mmHg 74%
    21:00 +18°C° 0 mm 4 m/s 759 mmHg 75%
    22:00 +15°C° 0 mm 4 m/s 759 mmHg 77%
    23:00 +15°C° 0 mm 4 m/s 759 mmHg 74%

    23 Junho, Domingo

    Tempo Temperatura Precipitação Vento Pressão Humidade
    00:00 +14°C° 0 mm 4 m/s 759 mmHg 70%
    01:00 +13°C° 0 mm 4 m/s 759 mmHg 67%
    02:00 +12°C° 0 mm 4 m/s 759 mmHg 69%
    03:00 +12°C° 0 mm 4 m/s 759 mmHg 70%
    04:00 +11°C° 0 mm 4 m/s 759 mmHg 71%
    05:00 +12°C° 0 mm 4 m/s 760 mmHg 71%
    06:00 +13°C° 0 mm 4 m/s 760 mmHg 70%
    07:00 +14°C° 0 mm 4 m/s 760 mmHg 70%
    08:00 +15°C° 0 mm 4 m/s 760 mmHg 65%
    09:00 +18°C° 0 mm 4 m/s 760 mmHg 60%
    10:00 +19°C° 0 mm 4 m/s 760 mmHg 54%
    11:00 +20°C° 0 mm 4 m/s 760 mmHg 51%
    12:00 +21°C° 0 mm 4 m/s 760 mmHg 48%
    13:00 +22°C° 0 mm 4 m/s 760 mmHg 45%
    14:00 +22°C° 0 mm 4 m/s 760 mmHg 46%
    15:00 +23°C° 0 mm 4 m/s 760 mmHg 47%
    16:00 +23°C° 0 mm 4 m/s 759 mmHg 48%
    17:00 +22°C° 0 mm 3 m/s 760 mmHg 54%
    18:00 +21°C° 0 mm 3 m/s 760 mmHg 61%
    19:00 +19°C° 0 mm 2 m/s 760 mmHg 67%
    20:00 +18°C° 0 mm 2 m/s 760 mmHg 73%
    21:00 +16°C° 0 mm 3 m/s 761 mmHg 78%
    22:00 +14°C° 0 mm 3 m/s 761 mmHg 84%
    23:00 +13°C° 0 mm 3 m/s 761 mmHg 87%

    24 Junho, Segunda-feira

    Tempo Temperatura Precipitação Vento Pressão Humidade
    00:00 +13°C° 0 mm 3 m/s 761 mmHg 89%
    01:00 +13°C° 0 mm 2 m/s 761 mmHg 92%
    02:00 +13°C° 0 mm 2 m/s 761 mmHg 92%
    03:00 +12°C° 0 mm 2 m/s 761 mmHg 91%
    04:00 +12°C° 0 mm 2 m/s 761 mmHg 90%
    05:00 +13°C° 0 mm 2 m/s 762 mmHg 84%
    06:00 +15°C° 0 mm 2 m/s 762 mmHg 78%
    07:00 +17°C° 0 mm 2 m/s 762 mmHg 72%
    08:00 +19°C° 0 mm 2 m/s 762 mmHg 66%
    09:00 +20°C° 0 mm 2 m/s 762 mmHg 60%
    10:00 +23°C° 0 mm 2 m/s 762 mmHg 54%
    11:00 +24°C° 0 mm 2 m/s 762 mmHg 51%
    12:00 +25°C° 0 mm 2 m/s 762 mmHg 47%
    13:00 +26°C° 0 mm 2 m/s 762 mmHg 44%
    14:00 +26°C° 0 mm 2 m/s 762 mmHg 44%
    15:00 +26°C° 0 mm 2 m/s 761 mmHg 44%
    16:00 +26°C° 0 mm 2 m/s 761 mmHg 43%
    17:00 +25°C° 0 mm 2 m/s 761 mmHg 49%
    18:00 +24°C° 0 mm 2 m/s 761 mmHg 55%
    19:00 +23°C° 0 mm 2 m/s 762 mmHg 61%
    20:00 +20°C° 0 mm 2 m/s 762 mmHg 67%
    21:00 +19°C° 0 mm 2 m/s 762 mmHg 72%
    22:00 +17°C° 0 mm 2 m/s 763 mmHg 77%
    23:00 +17°C° 0 mm 2 m/s 763 mmHg 82%

    25 Junho, Terça-feira

    Tempo Temperatura Precipitação Vento Pressão Humidade
    00:00 +16°C° 0 mm 2 m/s 763 mmHg 87%
    01:00 +16°C° 0 mm 2 m/s 763 mmHg 91%
    02:00 +15°C° 0 mm 2 m/s 763 mmHg 92%
    03:00 +15°C° 0 mm 2 m/s 763 mmHg 92%
    04:00 +14°C° 0 mm 2 m/s 763 mmHg 93%
    05:00 +16°C° 0 mm 2 m/s 763 mmHg 88%
    06:00 +18°C° 0 mm 2 m/s 763 mmHg 83%
    07:00 +19°C° 0 mm 2 m/s 764 mmHg 78%
    08:00 +21°C° 0 mm 2 m/s 764 mmHg 72%
    09:00 +22°C° 0 mm 3 m/s 764 mmHg 65%
    10:00 +25°C° 0 mm 3 m/s 764 mmHg 59%
    11:00 +26°C° 0 mm 3 m/s 764 mmHg 54%
    12:00 +27°C° 0 mm 3 m/s 764 mmHg 49%
    13:00 +27°C° 0 mm 3 m/s 763 mmHg 44%
    14:00 +27°C° 0 mm 3 m/s 763 mmHg 44%
    15:00 +27°C° 0 mm 3 m/s 763 mmHg 44%
    16:00 +27°C° 0 mm 3 m/s 763 mmHg 44%
    17:00 +26°C° 0 mm 2 m/s 763 mmHg 50%
    18:00 +25°C° 0 mm 2 m/s 763 mmHg 56%
    19:00 +24°C° 0 mm 2 m/s 763 mmHg 62%
    20:00 +21°C° 0 mm 2 m/s 763 mmHg 66%
    21:00 +19°C° 0 mm 2 m/s 764 mmHg 71%
    22:00 +18°C° 0 mm 3 m/s 764 mmHg 75%
    23:00 +17°C° 0 mm 3 m/s 764 mmHg 78%
    Mostrar mais